sat.trackr.live / text

‹ back to catalog

MMS 2

NORAD 40483 · 2015-011B

PAYLOAD ACTIVE UNKNOWN

§ Identity

Operator
Country
US
Launch date
2015-03-13
Launch site
AFETR
Launch vehicle
Mass (kg)
RCS (m²)
3.37

Purposes: science

External: N2YO · Heavens-Above · Gunter

§ Orbital elements

Epoch: 2026-09-15T00:00:02.000160Z

Period
5,080.02 min
Inclination
72.9620°
Eccentricity
0.8260071
Mean motion
0.28346359 rev/d
Perigee alt
10,654.0 km
Apogee alt
172,369.1 km
Semi-major
97,889.7 km
B*
0.0000e+0
RAAN
347.7685°
Arg perigee
169.3867°
Mean anomaly
100.2522°
Rev number
137

§ Raw data

MMS 21 40483U 15011B   26258.00002315 -.00001875  00000+0  00000+0 0  99912 40483  72.9620 347.7685 8260071 169.3867 100.2522  0.28346359  1374

JSON: /api/v1/satellites/40483 · /tle

For live sub-satellite position, see the globe view (requires WebGL).

§ Visibility from observer

Set your observer location to see the next 7 days of passes ≥ 10°. The values pass through the URL so the page stays shareable.

No JS? Fill the form by hand. The geolocation button needs JavaScript.